Regional Weather Roundup
Issued by NWS Upton, NY

Current Version | Previous Version | Text Only | Print | Product List | Glossary Off
Versions: 1 2 3 4 5 6 7 8 9 10 11 12 13 14 15 16 17 18 19 20 21 22 23 24 25 26 27 28 29 30 31 32 33 34 35 36 37 38 39 40 41 42 43 44 45 46 47 48 49 50
000 ASUS41 KOKX 241405 RWROKX REGIONAL WEATHER ROUNDUP NATIONAL WEATHER SERVICE NEW YORK NY 900 AM EST MON NOV 24 2014 NOTE: "FAIR" INDICATES FEW OR NO CLOUDS BELOW 12,000 FEET WITH NO SIGNIFICANT WEATHER AND/OR OBSTRUCTIONS TO VISIBILITY. NYZ071-072-176-178-NJZ106-104-241500- NEW YORK CITY METRO AREA CITY SKY/WX TMP DP RH WIND PRES REMARKS CENTRAL PARK CLOUDY 63 60 90 S3 29.71S LAGUARDIA APRT CLOUDY 60 58 92 S10 29.69R KENNEDY INTL PTSUNNY 59 57 93 S18 29.72R FOG NEWARK/LIBERTY CLOUDY 65 58 80 S7 29.68S BRNX BOT. GARD N/A 59 57 94 E7 29.71R TETERBORO CLOUDY 63 59 88 S10 29.67S $$ NYZ177-179-078>081-241500- LONG ISLAND NEW YORK CITY SKY/WX TMP DP RH WIND PRES REMARKS FARMINGDALE LGT RAIN 61 59 93 S22G30 29.72S VSB 1 ISLIP LGT RAIN 60 58 92 S17G31 29.71F VSB 1 SHIRLEY LGT RAIN 62 60 93 S17G30 29.74F FOG WESTHAMPTON LGT RAIN 61 60 97 S15G25 29.75S FOG MONTAUK POINT N/A 59 58 96 S14G24 29.77F $$ NYZ052-065-067-241500- HUDSON VALLEY CITY SKY/WX TMP DP RH WIND PRES REMARKS WHITE PLAINS N/A 59 58 96 S10G17 29.70F FOG NEWBURGH PTSUNNY 63 61 94 S17G24 29.66R MONTGOMERY LGT RAIN 64 59 83 S10 29.62S POUGHKEEPSIE CLOUDY 64 59 83 S10G20 29.64S ALBANY CLOUDY 57 55 93 S7 29.59R $$ NJZ001-105-106-008-010-013-015-019>022-104-241500- NEW JERSEY CITY SKY/WX TMP DP RH WIND PRES REMARKS NEWARK/LIBERTY CLOUDY 65 58 80 S7 29.68S TETERBORO CLOUDY 63 59 88 S10 29.67S CALDWELL CLOUDY 65 59 81 SW8 29.67S MORRISTOWN CLOUDY 66 63 88 SW12G20 29.67S SOMERVILLE CLOUDY 66 61 84 S6 29.65S SUSSEX CLOUDY 65 58 78 S10G22 29.64S ANDOVER N/A 64 58 80 SW10G22 29.64F TRENTON CLOUDY 66 61 84 SW21G32 29.67F MILLVILLE MOSUNNY 64 61 90 S9 29.71S ATLANTIC CITY CLOUDY 62 61 96 S15G22 29.73S WRIGHTSTOWN CLOUDY 66 65 96 SW22G30 29.67S TOMS RIVER CLOUDY 64 63 94 S9G16 29.72S BELMAR CLOUDY 64 57 77 S13G26 29.70F $$ PAZ047>061-062-071-241500- EASTERN PENNSYLVANIA CITY SKY/WX TMP DP RH WIND PRES REMARKS PHILADELPHIA PTSUNNY 65 61 87 S10 29.69S ALLENTOWN CLOUDY 67 59 75 S15G22 29.64S SCRANTON CLOUDY 64 56 75 S16G22 29.58R $$ CTZ002-004>006-009-010-012-RIZ004-006-007-MAZ004-011-015-241500- SOUTHERN NEW ENGLAND IN CT CITY SKY/WX TMP DP RH WIND PRES REMARKS BRADLEY INTL LGT RAIN 63 59 87 S16G25 29.67F FOG HARTFORD LGT RAIN 62 59 90 S21G30 29.68F FOG DANBURY LGT RAIN 62 57 83 S15G25 29.70F WTRBRY/OXFORD LGT RAIN 61 55 82 S15G23 29.73F FOG BRIDGEPORT LGT RAIN 59 58 96 S18 29.72F FOG MERIDEN RAIN 62 59 90 S15G25 29.71S VSB 1 NEW HAVEN CLOUDY 61 57 87 S16 29.73F FOG CHESTER LGT RAIN 61 61 100 S16G30 29.73F GROTON LGT RAIN 58 58 100 S26G40 29.73F VSB 3/4 WILLIMANTIC LGT RAIN 62 59 90 S14G24 29.73F FOG IN RI CITY SKY/WX TMP DP RH WIND PRES REMARKS PROVIDENCE RAIN 58 57 97 S21G35 29.76F FOG BLOCK ISLAND CLOUDY N/A N/A N/A S24G33 29.77F WESTERLY LGT RAIN 59 58 96 S20G31 29.76F FOG IN MA CITY SKY/WX TMP DP RH WIND PRES REMARKS BOSTON LGT RAIN 59 57 93 S21G31 29.75F FOG WORCESTER RAIN 58 57 97 SW18G30 29.72F FOG WESTFIELD LGT RAIN 49 46 90 S7 29.66F FOG PROVINCETOWN CLOUDY 59 54 82 S21G35 29.84F NANTUCKET CLOUDY 57 54 89 S24 29.88F FOG $$ ANZ330-335-338-340-345-350-353-355-241500- COASTAL MARINE OBSERVATIONS STATION/POSITION TIME SKY/WX TEMP WIND PRES VSBY WAVE AIR SEA DIR/SP/G HT/PER (UTC) (F) (DEG/KT/KT) (MB) (MI) (FT/S) NY HARB ENTRANCE 1400 59 55 200/ 21/ 25 1005.9 8/ 7 4S FIRE IS 1400 53 N/A 8/ 7 20S FIRE ISLAND 1400 61 56 190/ 23/ 27 1005.9 8/ 7 23SW MTP 1400 N/A 8/ 6 HUDSON CANYON 1400 63 60 180/ 23/ 29 1008.1 10/ 8 EXECUTION ROCKS NOT AVBL WESTERN LI SOUND NOT AVBL CENTRAL LI SOUND NOT AVBL EASTERN LI SOUND NOT AVBL ROBBINS REEF 1400 60 180/ 12/ 14 1003.9 $$ >>>>>>>>>>>>>>>>>>>>>>>>>>>> KEY <<<<<<<<<<<<<<<<<<<<<<<<<<< > < > SKY/WX - SKY CONDITION/PRESENT WEATHER < > TMP - TEMPERATURE IN FAHRENHEIT < > DP - DEWPOINT IN FAHRENHEIT < > RH - RELATIVE HUMIDITY IN PERCENT < > WIND - DIRECTION AND SPEED IN MPH < > PRES - MEAN SEA LEVEL PRESSURE IN INCHES OF HG < > WCI - WIND CHILL INDEX < > VSB - VISIBILITY IN MILES < > HX - HEAT INDEX < > TC - TEMPERATURE IN CELSIUS < > VRB - VARIABLE WIND DIRECTION < > < >>>>>>>>>>>>>>>>>>>>>>>>>>>> KEY <<<<<<<<<<<<<<<<<<<<<<<<<<<

USA.gov is the U.S. government's official web portal to all federal, state and local government web resources and services.